Flag for Turkey Weather past 2 weeks in Bodrum, Turkey

Now
71 °F

Thunderstorms. Overcast.


Feels Like: 73 °F
Forecast: 65 / 76 °F
Wind: 7 mph from Northeast

Location: Bodrum

Current Time: Jun 3, 2015 at 6:55:30 AM

Latest Report: Jun 3, 2015 at 3:00 AM


Visibility: 13 mi

Pressure: 29.92 "Hg

Humidity: 76%

Dew point: 63 °F

Location of BodrumLocation

Historic Weather in Bodrum — Graph

°F

Bodrum temperature yesterday

Maximum temperature yesterday: 84 °F (at 4:00 PM)
Minimum temperature yesterday: 68 °F (at 3:00 AM)
Average temperature yesterday: 77 °F

Past Weeks' High & Low Weather Summary

 TemperatureHumidityPressure
High85 °F (May 23, 7:00 PM)97% (May 29, 6:00 AM)29.99 "Hg (May 29, 6:00 AM)
Low62 °F (May 31, 6:00 AM)27% (May 19, 1:00 PM)29.66 "Hg (May 27, 6:00 PM)
Average73 °F60%29.85 "Hg
* Reported May 19 3:00 AM — Jun 3 3:00 AM, Bodrum, Weather by CustomWeather, © 2015

Note: Actual official high and low records may vary slightly from our data, if they occured in-between our weather recording intervals... More about our weather records

Advertising

Bodrum weather history for previous 24 hours

 ConditionsComfort  
Time TempWeatherWind HumidityBarometerVisibility
3:00 AM
Wed, Jun 3
71 °FThunderstorms. Overcast.7 mph76%29.92 "Hg12 mi
12:00 AM72 °FPassing clouds.1 mph73%29.91 "Hg12 mi
9:00 PM
Tue, Jun 2
76 °FClear.2 mph60%29.88 "Hg12 mi
8:00 PM77 °FSunny.3 mph58%29.86 "Hg12 mi
7:00 PM81 °FSunny.5 mph49%29.85 "Hg12 mi
6:00 PM83 °FSunny.6 mph49%29.84 "Hg12 mi
5:00 PM83 °FScattered clouds.7 mph45%29.85 "Hg12 mi
4:00 PM84 °FScattered clouds.7 mph43%29.85 "Hg12 mi
3:00 PM83 °FScattered clouds.7 mph47%29.85 "Hg12 mi
2:00 PM80 °FScattered clouds.6 mph55%29.87 "Hg12 mi
1:00 PM80 °FScattered clouds.6 mph55%29.86 "Hg12 mi
12:00 PM79 °FScattered clouds.5 mph57%29.86 "Hg12 mi
11:00 AM77 °FScattered clouds.5 mph58%29.86 "Hg12 mi
10:00 AM74 °FScattered clouds.3 mph61%29.87 "Hg12 mi
9:00 AM73 °FScattered clouds.2 mph66%29.86 "Hg12 mi
6:00 AM70 °FScattered clouds.6 mph68%29.84 "Hg12 mi
Weather by CustomWeather, © 2015

See weather overviewHow to use our weather pages